Ogden, UT

1:45 PM MDT on March 27, 2017 (GMT -0600)
Ogden-Hinckley

Weather History for KOGD - November, 2012

Change the Weather History Date:

Sunday, November 18, 2012

  Actual Average Record
Temperature  
Mean Temperature 47 °F -  
Max Temperature 53 °F 46 °F 63 °F (2007)
Min Temperature 41 °F 27 °F 11 °F (1958)
Degree Days  
Heating Degree Days 18    
Moisture  
Dew Point 39 °F    
Average Humidity 75    
Maximum Humidity 96    
Minimum Humidity 59    
Precipitation  
Precipitation 0.28 in - - ()
Sea Level Pressure  
Sea Level Pressure 29.99 in    
Wind  
Wind Speed 11 mph (SSE)    
Max Wind Speed 24 mph    
Max Gust Speed 37 mph    
Visibility 9 miles    
Events Rain , Thunderstorm    
Averages and records for this station are not official NWS values.
T = Trace of Precipitation, MM = Missing Value Source: NWS Daily Summary

Daily Weather History Graph

Daily Weather History Graph

Search for Another Location

Airport or City:

Trip Planner

Search our weather history database for the weather conditions in past years. The results will help you decide how hot, cold, wet, or windy it might be!

Date:

Astronomy

Nov. 18, 2012 Rise Set
Actual Time 7:20 AM MST 5:06 PM MST
Civil Twilight 6:50 AM MST 5:35 PM MST
Nautical Twilight 6:16 AM MST 6:09 PM MST
Astronomical Twilight 5:44 AM MST 6:42 PM MST
Moon 11:48 AM MST (11/18) 10:30 PM MST (11/18)
Length of Visible Light 10h 45m
Length of Day
9h 45m
Waxing Crescent, 31% of the Moon is Illuminated
Nov 18
Waxing Crescent
Nov 20
First Quarter
Nov 28
Full
Dec 6
Last Quarter
Dec 13
New

Hourly Weather History & Observations

Time (MST) Temp. Windchill Dew Point Humidity Pressure Visibility Wind Dir Wind Speed Gust Speed Precip Events Conditions
12:53 AM 48.0 °F - 39.0 °F 71% 29.89 in 10.0 mi South 11.5 mph - N/A   Overcast
1:53 AM 48.9 °F - 39.0 °F 69% 29.88 in 10.0 mi South 12.7 mph - N/A   Overcast
2:53 AM 50.0 °F - 37.9 °F 63% 29.88 in 10.0 mi South 17.3 mph - N/A   Overcast
3:53 AM 48.9 °F - 39.0 °F 69% 29.86 in 10.0 mi South 12.7 mph - 0.00 in   Overcast
4:53 AM 50.0 °F - 37.9 °F 63% 29.87 in 10.0 mi South 15.0 mph - N/A   Overcast
5:53 AM 50.0 °F - 39.0 °F 66% 29.88 in 10.0 mi South 13.8 mph 21.9 mph 0.00 in Rain Light Rain
6:53 AM 50.0 °F - 39.0 °F 66% 29.89 in 10.0 mi South 11.5 mph - 0.00 in   Overcast
7:53 AM 50.0 °F - 39.0 °F 66% 29.91 in 10.0 mi South 11.5 mph - N/A   Overcast
8:53 AM 50.0 °F - 39.0 °F 66% 29.92 in 10.0 mi South 15.0 mph - N/A   Overcast
9:53 AM 52.0 °F - 39.0 °F 61% 29.93 in 10.0 mi South 15.0 mph 23.0 mph N/A   Partly Cloudy
10:53 AM 53.1 °F - 39.0 °F 59% 29.95 in 10.0 mi South 16.1 mph - N/A   Overcast
11:53 AM 53.1 °F - 39.9 °F 61% 29.95 in 10.0 mi South 12.7 mph - N/A   Overcast
12:53 PM 52.0 °F - 41.0 °F 66% 29.95 in 10.0 mi West 8.1 mph - 0.00 in   Overcast
1:53 PM 52.0 °F - 41.0 °F 66% 29.94 in 10.0 mi WNW 5.8 mph - 0.00 in   Overcast
2:53 PM 50.0 °F - 41.0 °F 71% 29.95 in 9.0 mi NW 12.7 mph 18.4 mph 0.01 in Rain Light Rain
3:28 PM 48.2 °F - 39.2 °F 71% 30.02 in 10.0 mi West 3.5 mph - 0.01 in Thunderstorm Overcast
3:43 PM 48.2 °F - 39.2 °F 71% 30.03 in 10.0 mi East 4.6 mph - 0.02 in Rain Light Rain
3:53 PM 50.0 °F - 41.0 °F 71% 29.97 in 10.0 mi Calm Calm - 0.02 in Rain Light Rain
4:53 PM 46.9 °F - 39.9 °F 77% 29.96 in 10.0 mi ESE 3.5 mph - 0.00 in   Clear
5:53 PM 46.0 °F 44.8 °F 39.0 °F 76% 29.99 in 10.0 mi East 3.5 mph - N/A   Clear
6:53 PM 46.0 °F 39.9 °F 39.9 °F 79% 30.02 in 10.0 mi NNW 13.8 mph 21.9 mph 0.00 in Rain Light Rain
7:08 PM 42.8 °F 33.3 °F 37.4 °F 81% 30.10 in 6.0 mi NW 24.2 mph 36.8 mph 0.02 in Rain , Thunderstorm Rain
7:24 PM 41.0 °F 37.1 °F 39.2 °F 93% 30.14 in 3.0 mi NW 5.8 mph - 0.08 in Rain , Thunderstorm Thunderstorms and Rain
7:33 PM 42.8 °F 37.5 °F 39.2 °F 87% 30.13 in 2.0 mi ENE 9.2 mph - 0.14 in Rain , Thunderstorm Heavy Thunderstorms and Rain
7:45 PM 41.0 °F 33.9 °F 39.2 °F 93% 30.12 in 7.0 mi ENE 12.7 mph - 0.15 in Rain , Thunderstorm Light Rain
7:49 PM 41.0 °F 33.5 °F 39.2 °F 93% 30.11 in 10.0 mi East 13.8 mph - 0.15 in Rain Light Rain
7:53 PM 41.0 °F 33.9 °F 39.9 °F 96% 30.07 in 10.0 mi East 12.7 mph - 0.15 in Rain Light Rain
8:02 PM 42.8 °F 35.8 °F 39.2 °F 87% 30.10 in 10.0 mi ENE 13.8 mph - 0.01 in Rain Light Rain
8:53 PM 43.0 °F 39.5 °F 39.9 °F 89% 30.07 in 10.0 mi East 5.8 mph - 0.06 in   Overcast
9:53 PM 42.1 °F 37.7 °F 39.9 °F 92% 30.08 in 10.0 mi NE 6.9 mph - 0.04 in Rain Light Rain
10:53 PM 43.0 °F 38.8 °F 39.9 °F 89% 30.07 in 10.0 mi SSE 6.9 mph - 0.00 in   Overcast
11:53 PM 43.0 °F 41.3 °F 39.0 °F 86% 30.08 in 10.0 mi South 3.5 mph - 0.00 in   Overcast